Location: *
(51.2167°N, 10.0667°E)
Time: 03:26:26
(UTC+00:00)

ATLAS 2AS CENTAUR R/B - Pass Details

Date: 12 December 2019
Orbit: 927 x 1285 km, 63.7° (Epoch: 19 January)

Event Time Altitude Azimuth Distance (km) Brightness Sun altitude
Rises 19:02:19 0° 294° (WNW) 4,263 6.8 -34.7°
Reaches altitude 10° 19:05:33 10° 304° (NW) 3,281 5.9 -35.2°
Enters shadow 19:12:01 33° 358° (N) 1,965 4.0 -36.2°
